Location: C�an Torras
(41.5052°N, 1.9280°E)
Time: 21:48:41
(UTC+00:00)

H-2A R/B - Pass Details

Date: 20 January 2021
Orbit: 734 x 836 km, 98.2° (Epoch: 02 March)

Event Time Altitude Azimuth Distance (km) Brightness Sun altitude
Rises 18:08:51 0° 149° (SSE) 3,162 5.0 -14.0°
Reaches altitude 10° 18:11:10 10° 143° (SE) 2,252 4.2 -14.5°
Maximum altitude 18:15:53 47° 71° (ENE) 1,001 2.2 -15.3°
Drops below altitude 10° 18:20:45 10° 359° (N) 2,318 4.4 -16.2°
Sets 18:23:09 0° 353° (N) 3,266 5.2 -16.6°
